Temp
-23 -25 -25 -25 -25 -25 -25 -25 -24 -24 -24 -23 -23 -22 -22 -21 -20 -19 -18 -18 -17 -18 -17 -16 -17 -16 -16 -16 -15 -15 -15 -15 -14 -14 -14 -14 -14 -14 -13 -13 -13 -13 -12 -12 -12 -12 -12
-22 -25 -25 -25 -25 -26 -25 -25 -24 -24 -23 -23 -23 -23 -22 -22 -21 -19 -18 -18 -18 -18 -17 -17 -17 -17 -16 -16 -16 -15 -15 -15 -15 -15 -14 -14 -14 -14 -14 -14 -14 -13 -13 -13 -13 -13 -13
-21 -24 -25 -25 -25 -25 -26 -26 -25 -24 -23 -24 -22 -23 -23 -21 -21 -19 -18 -18 -18 -18 -18 -17 -17 -17 -17 -17 -16 -16 -16 -15 -15 -15 -15 -15 -15 -15 -14 -14 -14 -14 -14 -14 -14 -15 -14
-19 -23 -24 -25 -24 -25 -25 -25 -24 -24 -24 -24 -24 -23 -23 -20 -20 -19 -19 -18 -18 -18 -18 -18 -17 -17 -17 -17 -17 -16 -16 -16 -16 -16 -15 -15 -15 -14 -14 -14 -15 -15 -15 -15 -16 -16 -15
-18 -21 -23 -24 -24 -24 -24 -24 -24 -24 -24 -24 -24 -23 -22 -20 -20 -19 -19 -19 -18 -18 -17 -17 -17 -17 -17 -17 -17 -17 -17 -17 -16 -16 -15 -15 -15 -15 -15 -15 -15 -16 -16 -16 -16 -17 -16
-18 -20 -21 -22 -23 -24 -24 -24 -24 -24 -24 -24 -24 -23 -22 -21 -20 -19 -19 -19 -18 -18 -18 -18 -18 -18 -18 -18 -18 -18 -17 -17 -17 -16 -16 -16 -15 -16 -16 -16 -16 -17 -17 -17 -17 -17 -18
-18 -19 -20 -20 -21 -22 -22 -23 -24 -24 -24 -24 -24 -24 -21 -21 -20 -20 -19 -19 -18 -18 -19 -19 -18 -18 -18 -18 -18 -18 -17 -17 -17 -16 -16 -16 -16 -17 -17 -17 -17 -18 -18 -18 -18 -18 -19
-18 -19 -19 -19 -19 -19 -20 -22 -22 -22 -23 -22 -23 -22 -22 -21 -21 -20 -20 -20 -19 -19 -19 -19 -19 -19 -19 -18 -18 -18 -18 -18 -17 -17 -17 -17 -17 -18 -18 -18 -18 -19 -19 -18 -18 -18 -19
-16 -18 -19 -19 -19 -20 -19 -20 -21 -21 -22 -21 -21 -21 -21 -21 -20 -20 -20 -20 -19 -20 -19 -19 -19 -19 -19 -19 -19 -18 -18 -18 -19 -19 -19 -19 -19 -19 -19 -19 -18 -18 -18 -18 -18 -18 -19
-15 -17 -18 -19 -19 -20 -20 -20 -20 -20 -20 -21 -20 -20 -21 -20 -20 -20 -20 -20 -20 -20 -19 -19 -19 -19 -19 -19 -19 -19 -19 -19 -19 -19 -19 -19 -18 -18 -18 -18 -18 -18 -18 -18 -18 -18 -18
-14 -15 -17 -18 -19 -19 -20 -20 -20 -20 -20 -20 -20 -20 -20 -20 -20 -20 -20 -20 -20 -20 -20 -19 -19 -19 -19 -19 -19 -19 -19 -19 -18 -18 -18 -18 -18 -18 -18 -17 -17 -17 -18 -18 -18 -18 -19
-14 -14 -16 -17 -18 -18 -18 -19 -19 -20 -20 -20 -20 -19 -20 -20 -20 -20 -20 -20 -20 -20 -20 -19 -19 -19 -19 -19 -19 -18 -18 -18 -18 -18 -17 -17 -17 -18 -17 -17 -17 -17 -18 -18 -18 -18 -18
-13 -14 -15 -16 -17 -18 -18 -18 -18 -19 -19 -19 -20 -20 -20 -20 -20 -20 -20 -20 -20 -20 -19 -19 -19 -19 -19 -19 -18 -18 -18 -17 -18 -18 -18 -17 -17 -17 -17 -17 -17 -17 -17 -18 -17 -17 -18
-13 -13 -14 -14 -15 -17 -18 -18 -19 -19 -19 -19 -19 -19 -19 -19 -20 -20 -20 -20 -20 -19 -19 -19 -19 -19 -19 -18 -18 -18 -17 -18 -18 -18 -18 -17 -17 -17 -17 -17 -17 -17 -17 -16 -16 -16 -17
-12 -13 -13 -14 -14 -15 -16 -18 -18 -19 -19 -19 -19 -19 -19 -19 -20 -20 -20 -20 -19 -19 -19 -19 -19 -18 -18 -18 -17 -18 -18 -18 -18 -17 -17 -17 -17 -18 -17 -17 -17 -16 -16 -16 -17 -16 -17
-12 -12 -13 -13 -14 -14 -15 -16 -17 -18 -19 -19 -19 -19 -19 -19 -19 -19 -19 -19 -19 -19 -19 -19 -18 -18 -18 -17 -17 -17 -17 -17 -17 -17 -17 -17 -17 -17 -18 -18 -17 -17 -16 -16 -16 -16 -16
-12 -12 -12 -13 -13 -14 -14 -14 -15 -16 -17 -18 -18 -18 -19 -19 -19 -19 -19 -19 -19 -18 -18 -18 -18 -18 -18 -17 -17 -16 -16 -16 -16 -16 -16 -17 -17 -17 -17 -17 -17 -17 -16 -16 -16 -16 -16
-13 -12 -12 -12 -12 -13 -13 -14 -14 -15 -15 -16 -16 -16 -17 -17 -17 -18 -18 -17 -17 -17 -17 -17 -17 -17 -16 -16 -16 -16 -16 -16 -16 -16 -16 -16 -17 -17 -17 -17 -16 -16 -16 -16 -16 -16 -16
-12 -12 -12 -12 -12 -12 -13 -13 -14 -14 -14 -14 -15 -15 -15 -15 -15 -15 -16 -16 -16 -15 -15 -15 -16 -15 -15 -15 -16 -16 -16 -16 -16 -16 -16 -16 -16 -16 -16 -16 -16 -16 -16 -15 -15 -15 -16
-11 -12 -12 -12 -12 -12 -12 -13 -13 -13 -13 -14 -14 -14 -14 -14 -14 -14 -14 -14 -15 -15 -15 -15 -15 -15 -15 -15 -15 -15 -16 -16 -16 -15 -15 -15 -15 -15 -14 -14 -14 -15 -15 -15 -15 -15 -16
-11 -10 -11 -12 -12 -12 -12 -12 -12 -13 -13 -13 -13 -13 -13 -14 -14 -14 -14 -14 -14 -14 -14 -14 -14 -15 -15 -15 -15 -15 -15 -15 -15 -14 -14 -14 -15 -15 -14 -14 -14 -15 -15 -15 -14 -14 -15
-12 -11 -10 -11 -12 -12 -12 -12 -12 -12 -12 -13 -13 -13 -13 -13 -14 -14 -14 -14 -14 -14 -14 -14 -14 -14 -14 -14 -15 -14 -14 -14 -14 -14 -14 -14 -14 -14 -15 -15 -15 -14 -14 -15 -14 -14 -14
-12 -12 -11 -10 -11 -11 -11 -12 -12 -11 -12 -12 -12 -12 -12 -13 -13 -13 -13 -13 -13 -13 -13 -13 -13 -14 -14 -14 -14 -14 -14 -14 -14 -14 -14 -14 -14 -14 -14 -14 -14 -14 -14 -14 -14 -14 -14
-11 -11 -12 -11 -10 -10 -10 -11 -12 -12 -11 -12 -12 -12 -12 -13 -13 -13 -13 -13 -13 -13 -13 -13 -13 -13 -13 -13 -13 -13 -14 -13 -13 -13 -13 -13 -13 -13 -13 -13 -14 -14 -14 -14 -13 -13 -13
-11 -11 -11 -11 -11 -11 -10 -10 -11 -11 -12 -11 -12 -12 -12 -12 -13 -13 -13 -13 -13 -12 -12 -12 -13 -13 -13 -13 -13 -13 -13 -13 -13 -13 -13 -13 -13 -13 -13 -13 -13 -13 -13 -13 -13 -13 -13
-11 -10 -11 -11 -11 -11 -11 -10 -10 -10 -11 -11 -12 -12 -12 -12 -12 -12 -13 -13 -12 -12 -12 -12 -12 -12 -13 -12 -13 -13 -13 -12 -12 -13 -13 -13 -13 -13 -13 -13 -13 -13 -13 -13 -13 -13 -13
-10 -11 -10 -10 -11 -11 -11 -11 -11 -10 -10 -11 -11 -12 -12 -12 -12 -12 -12 -12 -12 -12 -12 -12 -12 -12 -12 -12 -12 -12 -12 -13 -12 -12 -12 -12 -12 -12 -12 -12 -12 -13 -13 -13 -13 -13 -13
-10 -10 -11 -10 -11 -11 -11 -11 -11 -11 -10 -10 -10 -11 -11 -12 -12 -12 -12 -12 -12 -12 -12 -12 -12 -12 -12 -12 -12 -12 -12 -12 -12 -12 -12 -12 -12 -12 -12 -12 -12 -12 -13 -13 -13 -13 -13
-9 -10 -11 -11 -10 -11 -11 -11 -11 -11 -11 -11 -10 -10 -10 -11 -12 -12 -12 -12 -12 -12 -12 -12 -12 -12 -12 -12 -12 -12 -12 -12 -12 -12 -12 -12 -12 -12 -12 -13 -12 -12 -12 -12 -13 -13 -13
Height
5586 5574 5563 5553 5546 5540 5541 5544 5545 5548 5553 5559 5566 5573 5579 5584 5592 5607 5620 5633 5642 5653 5661 5668 5676 5686 5691 5696 5700 5705 5708 5711 5713 5714 5717 5719 5721 5722 5723 5724 5724 5724 5722 5723 5723 5721 5720
5586 5574 5564 5553 5545 5538 5535 5539 5545 5547 5551 5557 5563 5569 5574 5581 5589 5601 5616 5628 5636 5647 5656 5665 5671 5678 5686 5693 5696 5699 5703 5705 5706 5708 5710 5711 5712 5712 5713 5713 5714 5713 5712 5711 5710 5707 5706
5588 5579 5570 5561 5551 5542 5537 5539 5545 5549 5553 5559 5558 5567 5573 5581 5587 5598 5613 5623 5636 5645 5653 5661 5667 5673 5680 5687 5690 5693 5697 5698 5700 5701 5703 5704 5705 5704 5704 5704 5703 5703 5703 5700 5697 5694 5692
5599 5585 5577 5570 5560 5551 5547 5546 5549 5553 5556 5560 5565 5571 5574 5582 5589 5598 5611 5623 5635 5644 5650 5658 5665 5670 5677 5682 5685 5688 5690 5693 5694 5694 5696 5696 5697 5697 5695 5695 5694 5693 5692 5690 5686 5681 5678
5612 5597 5585 5578 5569 5563 5559 5557 5558 5559 5561 5565 5568 5572 5578 5585 5591 5601 5612 5623 5634 5643 5651 5657 5664 5669 5674 5678 5681 5684 5686 5687 5689 5689 5689 5690 5691 5689 5688 5686 5685 5683 5681 5679 5676 5669 5670
5629 5612 5597 5590 5578 5571 5567 5566 5566 5568 5569 5570 5571 5574 5581 5588 5596 5606 5614 5624 5634 5643 5650 5656 5662 5669 5673 5676 5678 5680 5683 5684 5684 5685 5685 5685 5683 5680 5679 5677 5676 5674 5673 5669 5665 5663 5657
5645 5628 5613 5603 5594 5584 5577 5571 5571 5571 5569 5569 5572 5578 5587 5594 5600 5609 5618 5626 5638 5646 5650 5656 5663 5668 5672 5675 5678 5679 5679 5680 5680 5680 5679 5677 5676 5673 5672 5670 5669 5668 5665 5663 5659 5656 5653
5659 5645 5631 5618 5608 5600 5591 5583 5579 5577 5576 5578 5581 5585 5591 5600 5606 5615 5623 5632 5639 5648 5654 5659 5663 5668 5670 5673 5676 5678 5679 5679 5678 5675 5673 5671 5668 5666 5665 5664 5665 5664 5661 5659 5655 5652 5647
5672 5660 5647 5634 5624 5615 5609 5601 5596 5593 5592 5595 5596 5599 5603 5608 5613 5622 5628 5637 5643 5648 5654 5660 5664 5668 5672 5676 5677 5678 5679 5677 5676 5673 5670 5668 5668 5667 5666 5665 5664 5662 5660 5657 5654 5649 5642
5686 5674 5663 5651 5640 5632 5626 5621 5613 5610 5608 5608 5609 5612 5617 5619 5626 5629 5636 5642 5646 5651 5658 5664 5667 5671 5673 5676 5679 5679 5679 5680 5678 5676 5674 5673 5672 5670 5667 5665 5664 5662 5658 5655 5650 5645 5640
5699 5688 5678 5668 5656 5647 5641 5636 5632 5628 5625 5623 5625 5628 5631 5633 5637 5640 5646 5649 5653 5657 5662 5667 5669 5672 5676 5680 5682 5682 5682 5682 5680 5678 5678 5677 5673 5670 5668 5666 5663 5661 5657 5652 5648 5642 5637
5712 5702 5691 5682 5674 5664 5656 5650 5646 5644 5641 5640 5638 5639 5642 5644 5646 5648 5653 5656 5659 5663 5665 5669 5672 5676 5680 5683 5684 5684 5684 5683 5681 5680 5679 5677 5673 5670 5667 5664 5662 5661 5657 5652 5645 5640 5635
5722 5714 5705 5694 5687 5682 5674 5666 5661 5657 5655 5653 5652 5651 5651 5652 5655 5656 5659 5662 5665 5667 5670 5674 5676 5679 5683 5685 5686 5686 5686 5685 5683 5681 5679 5677 5674 5671 5667 5663 5661 5659 5655 5651 5646 5640 5635
5732 5725 5718 5710 5699 5692 5688 5682 5675 5671 5667 5665 5665 5663 5662 5661 5662 5664 5666 5668 5671 5672 5675 5677 5680 5684 5687 5689 5689 5689 5688 5685 5683 5682 5680 5677 5675 5671 5667 5665 5662 5659 5655 5651 5647 5642 5638
5744 5735 5727 5722 5714 5704 5696 5692 5687 5682 5677 5675 5673 5674 5673 5671 5670 5671 5673 5674 5676 5678 5680 5682 5685 5688 5690 5691 5692 5690 5688 5687 5685 5683 5682 5679 5677 5674 5671 5668 5665 5660 5658 5655 5651 5646 5641
5753 5745 5737 5730 5725 5718 5709 5701 5696 5692 5688 5683 5684 5682 5682 5679 5678 5678 5679 5680 5681 5683 5686 5689 5691 5692 5693 5694 5694 5692 5691 5690 5688 5687 5685 5682 5679 5677 5674 5672 5668 5664 5662 5660 5655 5652 5646
5760 5754 5745 5739 5734 5728 5722 5714 5707 5701 5697 5695 5691 5691 5689 5688 5687 5687 5686 5687 5688 5690 5692 5694 5696 5697 5697 5697 5696 5696 5697 5695 5692 5691 5688 5686 5683 5681 5678 5676 5671 5669 5666 5663 5661 5658 5655
5763 5761 5754 5749 5742 5737 5732 5726 5720 5712 5706 5703 5702 5699 5697 5697 5696 5694 5694 5696 5695 5696 5698 5700 5701 5702 5702 5702 5702 5701 5701 5699 5696 5694 5690 5688 5685 5682 5681 5679 5676 5672 5670 5669 5666 5664 5660
5765 5763 5760 5755 5751 5746 5740 5735 5730 5725 5719 5713 5710 5708 5706 5706 5705 5704 5704 5705 5705 5705 5704 5704 5706 5707 5707 5707 5707 5706 5704 5702 5700 5698 5695 5692 5689 5686 5683 5682 5680 5677 5675 5672 5670 5666 5664
5768 5764 5762 5760 5756 5752 5748 5743 5738 5732 5730 5727 5720 5717 5716 5714 5712 5712 5714 5714 5714 5714 5714 5713 5712 5711 5710 5710 5710 5709 5707 5705 5702 5700 5698 5697 5694 5692 5690 5687 5685 5683 5680 5678 5675 5672 5670
5771 5766 5762 5762 5760 5757 5754 5750 5746 5743 5737 5734 5732 5726 5722 5721 5720 5719 5720 5720 5721 5721 5721 5720 5719 5718 5717 5715 5713 5712 5710 5708 5705 5704 5702 5701 5699 5697 5695 5692 5690 5688 5686 5683 5681 5678 5675
5771 5769 5764 5761 5760 5759 5757 5755 5750 5747 5745 5742 5737 5736 5731 5726 5726 5726 5725 5726 5726 5725 5725 5725 5723 5722 5721 5719 5718 5716 5714 5712 5711 5709 5707 5705 5704 5702 5699 5697 5695 5692 5689 5687 5684 5682 5680
5774 5767 5764 5761 5758 5757 5758 5757 5755 5751 5749 5747 5743 5740 5738 5735 5730 5729 5730 5729 5728 5727 5728 5727 5726 5724 5723 5722 5721 5719 5718 5716 5714 5713 5710 5709 5707 5705 5703 5700 5698 5696 5693 5691 5689 5686 5685
5771 5768 5763 5760 5758 5755 5754 5754 5753 5753 5750 5749 5747 5745 5743 5740 5736 5733 5731 5731 5730 5730 5729 5728 5728 5727 5726 5724 5723 5722 5720 5718 5716 5714 5712 5710 5708 5706 5704 5702 5701 5698 5695 5693 5691 5689 5687
5767 5766 5762 5760 5757 5756 5753 5752 5750 5750 5749 5749 5748 5746 5743 5743 5740 5737 5735 5732 5732 5731 5731 5730 5729 5727 5726 5726 5725 5723 5722 5720 5718 5715 5713 5711 5709 5708 5706 5703 5702 5699 5697 5695 5693 5692 5689
5764 5762 5760 5755 5754 5754 5753 5751 5749 5746 5745 5745 5744 5744 5743 5742 5741 5739 5737 5735 5733 5732 5731 5731 5730 5729 5727 5725 5724 5723 5721 5720 5719 5716 5714 5711 5709 5708 5705 5704 5702 5700 5697 5695 5693 5692 5690
5756 5758 5755 5753 5751 5749 5748 5748 5747 5745 5742 5742 5742 5739 5739 5739 5738 5737 5736 5735 5732 5732 5731 5730 5728 5727 5726 5725 5723 5722 5720 5719 5717 5715 5713 5711 5709 5707 5704 5702 5701 5699 5697 5695 5694 5694 5688
5750 5749 5751 5749 5746 5744 5743 5742 5742 5742 5741 5737 5736 5735 5735 5734 5735 5734 5734 5732 5730 5728 5728 5728 5727 5725 5723 5722 5720 5719 5717 5716 5715 5714 5712 5709 5707 5705 5702 5700 5699 5696 5694 5692 5691 5688 5686
5741 5741 5741 5744 5741 5739 5738 5738 5737 5736 5735 5735 5733 5732 5730 5729 5729 5728 5728 5728 5727 5726 5723 5721 5722 5722 5720 5719 5718 5716 5714 5713 5711 5710 5707 5707 5705 5703 5701 5699 5696 5694 5691 5689 5686 5684 5681
Wind_Speed
53 38 37 30 23 16 12 9 6 9 12 17 21 17 24 18 39 43 42 48 51 47 44 47 37 35 37 38 36 35 34 33 33 34 37 38 40 41 43 44 46 47 49 53 55 57 57
50 38 38 32 27 20 5 10 3 4 8 12 19 23 19 21 28 39 38 43 48 42 41 43 36 33 33 33 30 30 30 32 34 36 38 39 41 43 45 46 46 47 48 51 53 56 57
59 42 37 45 42 31 21 6 3 7 12 11 12 12 18 25 19 37 37 38 38 40 35 36 34 33 33 30 30 30 30 30 33 33 35 37 40 42 44 47 48 49 48 49 52 54 56
73 48 32 39 42 43 36 19 11 15 13 9 5 14 16 19 18 34 37 32 33 33 29 26 25 24 22 23 23 26 26 28 29 30 33 36 40 41 42 44 44 44 46 44 48 53 56
77 66 50 33 34 35 37 38 28 16 13 10 10 20 16 20 17 30 33 34 33 33 30 24 21 20 21 20 20 19 21 24 27 29 31 33 37 37 38 39 39 39 43 46 47 53 56
73 66 62 50 40 29 26 28 26 23 18 12 11 18 24 30 16 31 29 30 31 28 28 22 19 17 15 12 12 16 18 19 22 26 28 31 33 35 37 37 37 39 41 43 39 27 26
65 63 63 62 55 45 36 30 22 19 14 5 11 16 19 37 29 25 28 28 26 24 26 21 16 13 10 9 9 9 11 16 21 24 27 30 33 35 36 36 37 27 18 11 15 14 13
67 58 58 60 64 61 46 41 38 39 37 40 25 28 33 36 28 36 32 28 30 27 20 18 14 14 11 7 5 6 10 15 20 25 29 30 29 23 17 9 4 7 11 14 20 18 18
66 61 53 52 59 61 56 51 51 47 47 44 34 35 34 32 29 27 32 33 30 25 20 16 16 13 10 8 3 4 7 6 7 11 14 15 11 8 4 2 6 6 9 14 18 20 24
66 63 58 54 54 57 56 50 49 45 44 45 43 35 31 30 29 30 32 29 25 24 22 17 14 12 12 6 3 7 10 11 12 15 12 11 8 9 10 8 7 11 13 20 21 19 15
62 61 59 58 52 50 50 49 50 49 49 47 45 43 39 38 36 35 31 29 26 24 20 17 17 17 10 11 12 13 10 11 10 9 6 4 13 12 16 11 11 14 15 16 19 16 16
59 59 58 55 53 53 53 50 45 44 42 40 40 38 36 32 29 28 23 22 21 18 14 16 17 12 14 16 14 12 11 7 6 6 7 7 11 14 13 12 13 18 22 22 17 15 15
54 56 55 53 52 49 49 50 48 47 44 42 39 35 33 31 27 25 22 17 14 11 18 18 14 16 18 16 13 10 6 7 6 7 10 10 10 13 14 17 20 21 19 19 20 21 19
50 52 54 52 50 48 44 45 45 44 41 39 37 35 33 30 28 25 21 19 16 17 16 14 15 18 15 14 10 7 5 8 6 9 9 12 15 16 15 19 17 18 21 23 22 21 20
44 47 48 49 49 49 46 42 41 41 39 38 34 31 33 30 27 24 21 18 16 15 15 14 19 17 14 10 7 4 7 9 12 12 15 17 19 22 19 21 22 22 19 20 15 14 14
35 40 43 44 45 46 46 45 41 39 37 37 33 30 31 32 32 29 26 25 23 21 21 19 20 13 12 8 4 7 12 15 16 16 15 16 17 20 19 22 22 23 20 19 24 24 24
29 32 35 39 41 42 42 44 43 41 38 35 37 33 31 30 31 31 30 29 29 26 23 22 19 10 8 9 13 16 17 15 14 14 13 13 14 15 15 17 19 19 15 19 21 22 22
25 25 28 31 35 36 38 39 41 40 40 38 38 38 38 36 33 31 31 31 33 32 27 21 15 13 15 19 16 14 14 15 15 16 16 16 14 13 12 12 16 22 17 16 15 21 21
27 22 22 23 27 32 32 35 34 36 39 40 38 39 42 41 39 37 36 34 32 30 27 22 19 20 20 14 12 15 16 18 17 15 14 16 18 18 15 14 14 17 16 18 18 16 20
26 22 17 19 19 23 27 27 29 31 33 34 39 36 38 39 38 34 31 29 26 24 22 20 20 18 15 12 11 12 16 18 14 13 16 18 19 19 22 25 24 18 14 13 14 15 14
20 25 20 14 15 15 18 22 24 25 27 29 29 32 33 30 31 32 30 26 21 18 16 14 11 11 7 11 15 16 17 12 14 17 16 15 15 15 16 17 18 18 18 17 18 19 18
16 15 22 21 11 11 11 13 17 18 19 22 23 24 26 28 25 24 23 20 17 16 14 10 5 6 8 10 12 12 12 14 14 12 12 12 12 12 11 12 13 13 13 13 15 15 14
22 13 12 17 19 10 7 8 8 11 13 14 15 17 19 20 22 21 19 17 15 13 11 13 11 8 5 6 8 7 8 9 10 10 10 11 11 11 10 10 10 9 9 8 8 9 10
24 20 12 10 12 15 12 6 5 5 5 6 8 9 10 12 13 14 15 14 13 11 11 10 9 7 7 7 5 5 5 5 6 6 7 8 9 10 10 9 8 7 8 7 7 6 6
23 23 18 12 11 11 12 14 9 8 7 4 2 1 3 3 5 6 7 9 9 8 7 7 6 6 5 5 6 7 8 8 9 10 10 10 9 9 9 8 7 7 5 5 6 4 3
22 23 23 17 10 10 9 10 12 11 11 10 9 8 7 5 4 2 2 2 3 2 1 1 1 2 2 2 3 5 6 7 8 9 10 11 12 12 11 11 9 9 7 6 6 8 7
28 24 22 21 19 14 11 10 8 9 11 13 13 14 14 14 12 10 9 8 7 6 5 5 6 6 7 7 7 7 8 9 8 9 11 12 12 13 13 13 13 13 13 13 11 10 10
32 29 26 23 20 19 17 15 12 8 5 9 13 15 18 19 18 18 18 17 15 13 12 13 13 13 13 13 13 13 12 13 14 15 15 15 15 15 14 16 15 15 14 14 14 14 14
36 34 31 30 27 21 20 20 20 18 11 5 9 11 15 17 20 22 22 24 24 23 20 19 20 20 20 20 20 20 20 20 20 18 21 21 23 21 20 20 19 17 19 18 17 16 16
Wind_Direction
348 352 356 350 343 339 267 266 279 227 216 220 233 219 224 216 211 214 213 222 214 208 215 226 230 231 235 238 240 245 250 254 260 264 267 266 266 267 268 270 271 270 269 268 268 268 265
11 9 19 20 19 7 335 235 259 186 182 210 209 205 205 234 199 201 205 215 213 209 214 224 217 220 228 237 241 245 253 259 265 267 270 272 273 273 273 274 273 272 272 273 270 267 266
25 22 35 33 32 38 41 109 166 125 146 157 184 163 162 222 195 193 198 204 209 208 210 218 220 220 227 231 242 255 261 263 264 266 268 269 270 271 274 275 275 275 274 274 272 269 268
35 33 33 32 35 42 44 70 87 93 138 157 75 118 136 182 178 184 190 192 201 196 193 193 207 218 230 238 243 249 254 259 262 264 267 270 272 273 273 276 276 277 276 274 270 270 270
37 43 40 24 31 39 46 53 69 83 102 119 144 143 145 164 146 173 180 186 197 194 196 204 208 215 223 229 237 247 255 258 264 268 270 271 273 276 279 279 279 277 277 275 274 278 278
33 41 47 46 48 50 56 55 56 61 81 90 99 128 162 136 137 160 160 179 190 188 190 195 205 207 210 220 235 247 256 265 269 273 276 275 278 280 277 275 275 278 282 284 287 291 286
32 37 47 49 49 58 63 68 57 42 39 71 136 121 133 127 145 137 153 166 175 177 175 171 173 170 188 202 217 245 262 269 274 277 279 279 276 272 273 278 286 290 280 274 282 302 331
35 36 43 47 47 50 55 59 65 70 78 83 95 120 109 125 127 145 159 160 157 159 162 155 154 161 163 167 209 238 273 283 287 286 281 278 282 286 289 285 200 268 285 299 300 300 315
39 39 42 40 50 51 57 69 72 83 88 86 96 108 111 129 141 135 150 157 156 152 140 143 140 143 153 158 181 300 306 342 41 61 71 76 75 72 73 288 282 316 342 330 325 313 296
38 44 45 49 52 53 54 64 65 69 75 78 81 116 106 113 116 124 136 144 136 133 140 142 144 146 137 130 83 78 101 87 50 60 70 81 46 9 22 15 343 334 324 320 324 327 323
40 41 46 50 56 54 57 58 60 66 70 75 83 92 99 103 109 112 118 123 127 128 136 133 136 136 137 117 100 88 91 55 52 54 40 15 4 351 8 354 347 341 351 339 330 321 335
40 42 44 50 54 61 65 68 66 65 68 72 77 80 86 89 92 98 105 111 114 124 129 129 131 124 122 111 84 68 58 65 55 25 358 343 340 352 6 356 351 353 347 349 1 7 0
41 42 44 47 52 56 62 65 67 70 71 74 77 80 83 85 88 91 96 97 100 119 124 130 130 131 121 89 76 70 65 37 18 349 2 3 359 354 349 351 360 1 3 12 28 28 27
43 44 45 47 51 54 58 63 68 69 73 74 75 77 81 83 85 86 88 87 103 109 113 128 128 126 112 99 82 67 36 22 22 30 22 9 14 19 13 17 24 23 27 32 25 30 33
39 45 47 47 51 53 55 58 63 68 73 75 79 80 77 79 83 86 87 92 100 107 112 112 129 120 111 98 84 46 18 46 51 35 36 40 52 39 35 45 38 31 37 26 27 31 25
35 43 45 49 51 54 55 57 60 64 70 78 79 81 81 79 82 83 89 85 92 96 99 109 127 117 100 111 82 48 63 68 60 52 42 38 25 35 37 31 27 33 40 48 49 48 49
30 35 45 47 49 54 57 59 60 62 66 71 80 82 82 80 83 86 89 90 92 99 106 122 136 110 67 67 76 83 87 75 54 37 29 20 18 23 26 26 31 33 49 56 56 50 51
23 28 34 46 49 51 56 59 61 65 67 70 76 80 80 84 86 88 94 94 96 98 100 105 103 90 97 109 106 91 72 48 35 25 15 33 33 33 31 36 43 43 37 49 44 37 55
22 24 24 34 45 48 53 59 61 63 67 71 75 81 86 90 91 92 92 95 96 100 104 106 106 118 123 110 88 54 39 22 17 26 38 47 47 45 50 49 55 59 52 52 59 59 59
15 22 21 20 32 45 51 55 60 65 65 68 76 82 89 93 95 99 100 101 102 104 106 109 113 121 120 65 42 25 12 0 8 50 77 77 70 67 66 67 68 71 66 61 62 62 69
19 19 18 17 17 27 42 50 56 57 68 68 70 80 87 99 99 97 100 105 107 101 98 97 100 97 61 20 14 3 0 24 74 88 87 81 78 73 69 65 63 67 68 66 64 64 64
355 20 16 13 6 11 21 33 51 58 57 67 72 74 83 88 98 101 99 100 99 90 85 97 91 63 54 37 29 33 62 70 73 69 69 69 60 57 56 54 56 57 57 56 57 57 62
335 343 14 21 9 3 353 4 16 45 54 61 68 73 77 86 96 94 93 95 94 88 82 98 101 101 83 63 69 65 57 55 50 42 37 34 35 37 36 35 26 31 40 50 55 61 63
327 325 335 7 17 3 3 326 317 334 22 45 64 65 73 86 89 101 107 100 96 92 90 88 74 61 58 53 38 35 33 31 33 35 29 20 13 13 14 17 16 9 9 18 32 43 48
317 319 320 331 345 2 1 355 326 285 286 286 305 36 60 64 96 104 103 106 103 98 88 80 75 72 56 37 29 26 17 18 14 10 10 12 14 13 13 3 4 7 351 340 339 348 2
307 304 311 315 324 325 342 0 341 330 288 262 260 262 259 261 267 250 213 189 149 135 111 62 21 3 354 355 358 346 352 358 355 359 0 357 355 354 1 359 356 358 356 346 322 314 306
296 292 296 305 308 315 316 318 344 336 324 301 273 261 261 260 258 253 255 258 253 255 260 265 270 277 288 295 303 311 316 314 317 326 333 339 343 343 342 340 342 344 343 336 333 323 311
292 288 286 291 293 295 301 306 304 309 300 305 301 278 265 260 262 265 263 261 260 257 264 270 269 269 270 271 273 280 287 294 301 306 307 312 311 313 322 327 329 327 326 324 324 320 312
281 283 278 286 287 288 293 294 297 298 292 299 273 291 287 271 266 263 263 267 267 263 262 260 269 275 278 278 280 280 282 283 286 292 297 302 302 305 307 310 311 315 309 311 310 308 308